Regional Weather Roundup
Issued by NWS

Home | Current Version | Previous Version | Text Only | Print | Product List | Glossary On
Versions: 1 2 3 4 5 6 7 8 9 10 11 12 13 14 15 16 17 18 19 20 21 22 23 24 25 26 27 28 29 30 31 32 33 34 35 36 37 38 39 40 41 42 43 44 45 46 47 48 49 50
000
ASUS44 KOUN 282310
RWROK

WEATHER ROUNDUP FOR OKLAHOMA
NATIONAL WEATHER SERVICE NORMAN OK
600 PM CDT SUN MAY 28 2017

NOTE: "FAIR" INDICATES FEW OR NO CLOUDS BELOW 12,000 FEET WITH NO
      SIGNIFICANT WEATHER AND/OR OBSTRUCTIONS TO VISIBILITY.

OKZ001>007-009>012-014-015-017-290000-
NORTHWEST OKLAHOMA AND THE PANHANDLE

CITY           SKY/WX    TMP DP  RH WIND       PRES   REMARKS
GAGE           SUNNY     82  43  25 N9        30.07F
GUYMON         MOSUNNY   77  43  29 N12       30.12F
ENID/WOODRING  MOSUNNY   86  43  22 NW8       30.00F
$$

OKZ016-021>023-033>039-044-045-290000-
SOUTHWEST OKLAHOMA

CITY           SKY/WX    TMP DP  RH WIND       PRES   REMARKS
LAWTON/REGL    SUNNY     85  54  34 N9        30.00F
LAWTON/FT SILL SUNNY     83  55  38 NE8       29.98F
FREDERICK      SUNNY     87  45  23 N13G20    29.98F
CLINTON        SUNNY     82  37  20 N9        30.06F
HOBART         SUNNY     84  42  22 NE8       30.04F
ALTUS AFB      SUNNY     84  39  19 N9        30.01F
$$

OKZ018>020-024>031-290000-
CENTRAL OKLAHOMA

CITY           SKY/WX    TMP DP  RH WIND       PRES   REMARKS
OKLAHOMA CITY  MOSUNNY   82  46  28 N13       30.00F
OKC/WILEY POST MOSUNNY   84  46  26 N12       30.00F
OKC/TINKER AFB MOSUNNY   82  53  37 NE8       30.00F
STILLWATER     SUNNY     84  43  23 N10       30.00S
GUTHRIE        SUNNY     83  49  30 NE7       30.00F
$$

OKZ008-013-054>072-290000-
NORTHEAST OKLAHOMA

CITY           SKY/WX    TMP DP  RH WIND       PRES   REMARKS
TULSA          MOSUNNY   82  58  43 NW12      29.96F
TULSA/JONES    MOSUNNY   81  54  39 VRB5      29.97F
PONCA CITY     SUNNY     85  42  22 NW10      29.99F
BARTLESVILLE   SUNNY     82  52  35 VRB3      29.99F
MUSKOGEE       MOSUNNY   81  58  45 N8        29.97F
$$

OKZ032-040>043-046>053-073>077-290000-
SOUTH CENTRAL/SOUTHEAST OKLAHOMA

CITY           SKY/WX    TMP DP  RH WIND       PRES   REMARKS
ARDMORE/DWNTWN PTSUNNY   81  55  41 NE8G18    29.96F
MCALESTER      SUNNY     83  60  45 N12       29.97F
$$




USA.gov is the U.S. government's official web portal to all federal, state and local government web resources and services.